[[{"header":{"parameterUnit":"m.s-1","parameterCategory":1,"la1":30.2991,"la2":30.254,"lo1":-89.0895,"lo2":-89.0444,"dy":0.0017,"dx":0.0017,"nx":28,"ny":28,"refTime":"2025-05-20T03:00:00:Z","depth":0,"parameterNumber":2,"parameterNumberName":"U-component_of_WINDS"},"data":[0,0,0,0,0,0,0,0,0,0,0,0,0,0,0,0,0,0,0,0,0,0,0,0,0,0,0,0,0,0,0,0,0,0,0,0,0,0,0,0,0,0,0,0,0,0,0,0,0,0,0,0,0,0,0,0,0,0,-1.3326,-1.3327,0,-1.343,-1.3431,-1.3432,-1.3482,-1.3482,-1.3482,-1.3482,-1.3593,-1.3596,-1.3598,0,0,0,0,0,0,0,0,0,0,0,0,0,-1.3177,-1.3179,-1.3326,-1.3328,-1.3329,-1.343,-1.3431,-1.3432,-1.3482,-1.3482,-1.3482,-1.3482,-1.3592,-1.3595,-1.3599,0,0,0,0,0,0,0,0,0,0,0,0,0,-1.3257,-1.318,-1.3326,-1.3366,-1.337,-1.3429,-1.3431,-1.3433,-1.3482,-1.3482,-1.3482,-1.3482,-1.359,-1.3595,-1.3599,-1.3628,0,0,-1.3613,-1.3615,0,0,0,0,0,0,0,0,-1.3253,-1.3263,-1.3359,-1.3363,-1.3368,-1.3443,-1.3419,-1.3498,-1.3482,-1.344,-1.3482,-1.3482,-1.3543,-1.3552,-1.3571,-1.3633,-1.3638,-1.3613,-1.3616,-1.3618,-1.3619,0,0,0,0,0,0,0,-1.3247,-1.3259,-1.3367,-1.336,-1.3366,-1.338,-1.3391,-1.3434,-1.3491,-1.3444,-1.3447,-1.3459,-1.3546,-1.3567,-1.3574,-1.3639,-1.3613,-1.3617,-1.362,-1.3622,-1.3731,-1.3731,0,0,0,0,0,0,-1.3234,-1.3253,-1.3364,-1.3371,-1.3309,-1.3383,-1.3395,-1.3419,-1.349,-1.3501,-1.3459,-1.3461,-1.3559,-1.3569,-1.3578,-1.3617,-1.3618,-1.3622,-1.3625,-1.3731,-1.3731,-1.3732,0,0,0,0,0,0,-1.3231,-1.3244,-1.336,-1.3313,-1.3329,-1.3385,-1.3412,-1.3421,-1.3442,-1.3502,-1.3513,-1.3469,-1.356,-1.3572,-1.3615,-1.3622,-1.3624,-1.3628,-1.3731,-1.3731,-1.3731,-1.3694,0,0,0,0,0,0,-1.3226,-1.3242,-1.3252,-1.3313,-1.3331,-1.3393,-1.3412,-1.3423,-1.3449,-1.3453,-1.3515,-1.3525,-1.356,-1.3608,-1.3619,-1.3628,-1.3632,-1.373,-1.3731,-1.3731,-1.3695,-1.3693,-1.3692,0,0,0,0,0,-1.3221,-1.3239,-1.3253,-1.3266,-1.3345,-1.3394,-1.3404,-1.3444,-1.3449,-1.3461,-1.35,-1.3523,-1.3619,-1.3612,-1.3625,-1.3635,-1.373,-1.3731,-1.3731,-1.3696,-1.3694,-1.3692,0,0,0,0,0,0,-1.3179,-1.3247,-1.3264,-1.3301,-1.3341,-1.3402,-1.3418,-1.344,-1.348,-1.3482,-1.353,-1.3544,-1.3583,-1.3614,-1.3605,-1.3667,-1.3677,-1.368,-1.3645,-1.3644,-1.3642,-1.3634,-1.3635,0,0,0,0,0,-1.3174,-1.3206,-1.3265,-1.3292,-1.3311,-1.3361,-1.3384,-1.341,-1.3454,-1.3472,-1.3513,-1.3556,-1.3597,-1.3622,-1.3662,-1.37,-1.3715,-1.3713,-1.3711,-1.371,-1.3712,-1.3735,-1.3735,-1.3733,-1.3733,-1.3733,0,0,-1.3164,-1.3205,-1.3223,-1.3285,-1.3319,-1.3353,-1.3375,-1.341,-1.3436,-1.3478,-1.352,-1.3553,-1.3604,-1.3644,-1.3665,-1.3671,-1.3716,-1.371,-1.3708,-1.3712,-1.3736,-1.3736,-1.3736,-1.3734,-1.3734,-1.3733,0,0,-1.3164,-1.3198,-1.3225,-1.3258,-1.3309,-1.3342,-1.3348,-1.3406,-1.3428,-1.3471,-1.3504,-1.3536,-1.3604,-1.3639,-1.3666,-1.3679,-1.3703,-1.3691,-1.3682,-1.3704,-1.3704,-1.3705,-1.371,-1.3711,-1.3693,-1.3693,-1.3693,0,-1.3146,-1.3196,-1.3236,-1.3269,-1.3295,-1.3334,-1.3362,-1.3393,-1.3455,-1.3473,-1.3479,-1.3565,-1.3603,-1.3652,-1.3655,-1.3676,-1.3686,-1.3684,-1.3701,-1.3702,-1.3703,-1.3708,-1.371,-1.3692,-1.3692,-1.3692,-1.3692,0,-1.3172,-1.3206,-1.3222,-1.3279,-1.3308,-1.3338,-1.3384,-1.3409,-1.3433,-1.3466,-1.351,-1.3556,-1.3607,-1.3621,-1.3645,-1.3674,-1.3677,-1.3691,-1.3702,-1.37,-1.3707,-1.3709,-1.3689,-1.369,-1.369,-1.3691,0,0,-1.3148,-1.3226,-1.3231,-1.3258,-1.3317,-1.3345,-1.3378,-1.3426,-1.3446,-1.3488,-1.3517,-1.3574,-1.3587,-1.3618,-1.3647,-1.3666,-1.3675,-1.3679,-1.3681,-1.3677,-1.371,-1.3699,-1.3701,-1.369,-1.3691,-1.3691,-1.3706,0,-1.3156,-1.3214,-1.3251,-1.3296,-1.3329,-1.3366,-1.3395,-1.3435,-1.3466,-1.3501,-1.3536,-1.3576,-1.359,-1.3609,-1.363,-1.3669,-1.3682,-1.3668,-1.372,-1.3721,-1.3706,-1.3704,-1.3692,-1.3704,-1.3709,-1.3709,-1.3709,0,-1.3173,-1.3212,-1.3259,-1.3314,-1.333,-1.3354,-1.3401,-1.3433,-1.348,-1.3502,-1.3535,-1.3565,-1.3603,-1.361,-1.3664,-1.3654,-1.3677,-1.37,-1.3702,-1.3708,-1.3715,-1.3711,-1.3708,-1.371,-1.3714,-1.3713,-1.3713,0,-1.3151,-1.3215,-1.3252,-1.3273,-1.3339,-1.3356,-1.3384,-1.3431,-1.3457,-1.3499,-1.3517,-1.3563,-1.3588,-1.3624,-1.3666,-1.3667,-1.3716,-1.3727,-1.3736,-1.3735,-1.3745,-1.3744,-1.3746,-1.3759,-1.3759,-1.3759,-1.3759,0,-1.3156,-1.3183,-1.3243,-1.3265,-1.3298,-1.3341,-1.3373,-1.3404,-1.3446,-1.3476,-1.3512,-1.354,-1.3593,-1.3629,-1.3662,-1.3702,-1.3713,-1.3733,-1.3741,-1.373,-1.3727,-1.3746,-1.3746,-1.376,-1.3759,-1.3759,-1.3759,0,-1.3137,-1.3178,-1.322,-1.3278,-1.3294,-1.3315,-1.3366,-1.339,-1.3423,-1.3462,-1.3473,-1.3527,-1.357,-1.3615,-1.3675,-1.3697,-1.3736,-1.3748,-1.372,-1.3724,-1.3732,-1.373,-1.3747,-1.3751,-1.376,-1.376,-1.376,0,-1.3137,-1.3159,-1.3219,-1.3241,-1.3268,-1.3304,-1.3331,-1.3375,-1.3401,-1.3457,-1.3475,-1.352,-1.3559,-1.3628,-1.3673,-1.3719,-1.3732,-1.3735,-1.374,-1.3727,-1.3733,-1.3731,-1.3734,-1.3733,-1.3733,-1.3732,-1.3732,0,-1.3134,-1.3153,-1.3189,-1.3233,-1.3263,-1.33,-1.3339,-1.3355,-1.3407,-1.3436,-1.348,-1.351,-1.357,-1.3616,-1.3667,-1.3699,-1.3725,-1.373,-1.3735,-1.3724,-1.3706,-1.3716,-1.3715,-1.373,-1.373,-1.373,-1.373,-1.373,-1.3126,-1.3147,-1.3192,-1.3232,-1.3265,-1.33,-1.3325,-1.3361,-1.3398,-1.3449,-1.3474,-1.3518,-1.3566,-1.3637,-1.3668,-1.3705,-1.3712,-1.3719,-1.3721,-1.3722,-1.3719,-1.37,-1.3715,-1.3715,-1.3715,-1.3715,-1.3715,0,-1.3124,-1.3155,-1.3191,-1.3243,-1.3274,-1.3294,-1.3338,-1.3363,-1.3401,-1.3443,-1.348,-1.3531,-1.3576,-1.3624,-1.3672,-1.3692,-1.3705,-1.3703,-1.3703,-1.371,-1.371,-1.3701,-1.3692,-1.3692,-1.3692,-1.3692,-1.3692,-1.3692,-1.3127,-1.3164,-1.3189,-1.3243,-1.3275,-1.3317,-1.334,-1.3374,-1.3407,-1.3462,-1.3498,-1.3529,-1.3574,-1.3625,-1.3668,-1.3681,-1.3697,-1.3692,-1.3709,-1.3708,-1.3709,-1.3711,-1.3703,-1.3695,-1.3695,-1.3706,-1.3706,-1.3706]},{"header":{"parameterUnit":"m.s-1","parameterCategory":1,"la1":30.2991,"la2":30.254,"lo1":-89.0895,"lo2":-89.0444,"dy":0.0017,"dx":0.0017,"nx":28,"ny":28,"refTime":"2025-05-20T03:00:00:Z","depth":0,"parameterNumber":3,"parameterNumberName":"V-component_of_WINDS"},"data":[0,0,0,0,0,0,0,0,0,0,0,0,0,0,0,0,0,0,0,0,0,0,0,0,0,0,0,0,0,0,0,0,0,0,0,0,0,0,0,0,0,0,0,0,0,0,0,0,0,0,0,0,0,0,0,0,0,0,2.4535,2.4534,0,2.4435,2.4434,2.4432,2.4377,2.4377,2.4377,2.4377,2.4269,2.4266,2.4264,0,0,0,0,0,0,0,0,0,0,0,0,0,2.4674,2.4672,2.4535,2.4534,2.4533,2.4435,2.4433,2.4432,2.4377,2.4377,2.4377,2.4377,2.427,2.4267,2.4263,0,0,0,0,0,0,0,0,0,0,0,0,0,2.4598,2.4671,2.4536,2.4494,2.4489,2.4435,2.4433,2.4432,2.4377,2.4377,2.4377,2.4377,2.4271,2.4267,2.4263,2.4241,0,0,2.425,2.4249,0,0,0,0,0,0,0,0,2.4602,2.4593,2.4501,2.4497,2.4491,2.4419,2.4443,2.4368,2.4377,2.442,2.4377,2.4377,2.4319,2.4311,2.4292,2.4236,2.4232,2.425,2.4248,2.4246,2.4245,0,0,0,0,0,0,0,2.4608,2.4597,2.4495,2.45,2.4494,2.4478,2.4467,2.4428,2.4371,2.4416,2.4412,2.4401,2.4316,2.4296,2.4289,2.423,2.425,2.4246,2.4244,2.4242,2.4149,2.4149,0,0,0,0,0,0,2.462,2.4602,2.4499,2.4492,2.4548,2.4476,2.4464,2.4442,2.4372,2.4361,2.4401,2.4399,2.4303,2.4294,2.4285,2.4254,2.4246,2.4242,2.424,2.4149,2.4149,2.4149,0,0,0,0,0,0,2.4624,2.4612,2.4503,2.4546,2.4531,2.4474,2.445,2.444,2.442,2.436,2.4349,2.4392,2.4303,2.4291,2.4252,2.4249,2.424,2.4236,2.4149,2.4149,2.4149,2.4192,0,0,0,0,0,0,2.4628,2.4613,2.4606,2.4546,2.4529,2.4474,2.445,2.4438,2.4414,2.441,2.4349,2.4339,2.4302,2.4259,2.4248,2.4243,2.4233,2.4149,2.4149,2.4149,2.4191,2.4193,2.4196,0,0,0,0,0,2.4633,2.4622,2.4606,2.4594,2.4519,2.4474,2.4464,2.4423,2.4414,2.4405,2.4366,2.434,2.4251,2.4255,2.4243,2.4237,2.4149,2.4149,2.4149,2.4189,2.4193,2.4196,0,0,0,0,0,0,2.4681,2.4613,2.4595,2.4564,2.4525,2.4465,2.4452,2.4428,2.439,2.4387,2.4337,2.4323,2.4289,2.4259,2.4265,2.4211,2.4197,2.4195,2.4232,2.4235,2.4238,2.4245,2.423,0,0,0,0,0,2.4689,2.466,2.4601,2.4579,2.4561,2.451,2.4489,2.4461,2.4418,2.4401,2.4359,2.4317,2.4279,2.4255,2.4217,2.4186,2.417,2.4175,2.4178,2.418,2.4179,2.4158,2.4158,2.4149,2.4149,2.4149,0,0,2.4703,2.4662,2.4647,2.4588,2.4554,2.4523,2.4497,2.4465,2.4441,2.4395,2.4357,2.4325,2.4274,2.4239,2.4221,2.4212,2.4178,2.418,2.4183,2.4179,2.4158,2.4159,2.416,2.4149,2.4149,2.4149,0,0,2.4714,2.4681,2.4658,2.4625,2.4575,2.4541,2.4536,2.4478,2.4456,2.4416,2.4381,2.435,2.4287,2.4252,2.4226,2.4221,2.4195,2.421,2.4224,2.4204,2.4205,2.4205,2.4202,2.4202,2.4208,2.4209,2.4209,0,2.4738,2.4692,2.465,2.462,2.4594,2.4552,2.4528,2.4497,2.4437,2.4419,2.4411,2.4329,2.4292,2.4247,2.4246,2.4227,2.4217,2.4217,2.4208,2.4208,2.4208,2.4204,2.4204,2.4211,2.421,2.421,2.421,0,2.4723,2.4691,2.4679,2.4622,2.4595,2.4568,2.452,2.4497,2.4471,2.4437,2.4396,2.435,2.4302,2.4289,2.4263,2.4239,2.4235,2.4218,2.4203,2.4212,2.4207,2.4206,2.4214,2.4213,2.4212,2.4212,0,0,2.4762,2.4682,2.4678,2.4652,2.4592,2.4566,2.4536,2.449,2.447,2.4429,2.4402,2.4349,2.4332,2.4302,2.4271,2.4254,2.4251,2.4239,2.4237,2.4242,2.4221,2.4234,2.4233,2.4234,2.4234,2.4233,2.4225,0,2.4764,2.471,2.4671,2.4631,2.46,2.4559,2.4532,2.4492,2.4459,2.4427,2.4389,2.4352,2.4334,2.4315,2.4296,2.4256,2.4246,2.4256,2.4206,2.4205,2.422,2.4231,2.4245,2.424,2.4223,2.4223,2.4223,0,2.4759,2.472,2.4679,2.4621,2.4606,2.4584,2.4537,2.4507,2.4459,2.4436,2.4403,2.4371,2.4335,2.4323,2.4272,2.428,2.4257,2.4233,2.4232,2.4226,2.4214,2.4224,2.4237,2.4236,2.422,2.422,2.422,0,2.4791,2.4728,2.4694,2.4673,2.4605,2.459,2.4561,2.4513,2.4487,2.4445,2.4428,2.4382,2.4357,2.4321,2.4277,2.4273,2.423,2.4215,2.4208,2.4209,2.4201,2.4202,2.421,2.4187,2.4187,2.4187,2.4187,0,2.4796,2.4772,2.4708,2.4687,2.4658,2.4611,2.4583,2.455,2.4507,2.4478,2.4438,2.4411,2.4355,2.432,2.4285,2.4247,2.4236,2.4215,2.4206,2.4218,2.4221,2.4202,2.4201,2.4187,2.4187,2.4187,2.4187,0,2.4827,2.4784,2.4744,2.4683,2.4667,2.4648,2.4594,2.4572,2.4536,2.4499,2.4488,2.4432,2.4388,2.4341,2.4281,2.4258,2.4222,2.4209,2.4238,2.4233,2.4229,2.4229,2.4224,2.422,2.4202,2.4202,2.4202,0,2.4834,2.4814,2.4751,2.4729,2.4701,2.4666,2.4639,2.4592,2.4565,2.4508,2.4492,2.4446,2.4407,2.434,2.4292,2.4246,2.4231,2.4232,2.4224,2.4237,2.423,2.4232,2.4229,2.4235,2.4236,2.4236,2.4236,0,2.485,2.4829,2.4792,2.4748,2.4717,2.468,2.464,2.4624,2.4568,2.454,2.4496,2.4465,2.4405,2.4359,2.4307,2.4274,2.4245,2.4239,2.4235,2.4247,2.4265,2.4254,2.4244,2.424,2.4239,2.4239,2.4239,2.4239,2.4868,2.4848,2.48,2.476,2.4725,2.4689,2.4664,2.4626,2.4589,2.4537,2.451,2.4466,2.4416,2.4343,2.4312,2.4275,2.4266,2.426,2.4258,2.4257,2.426,2.4271,2.4265,2.4265,2.4265,2.4265,2.4265,0,2.4881,2.4848,2.4812,2.4758,2.4726,2.4703,2.4657,2.4632,2.4594,2.4551,2.4513,2.4461,2.4416,2.4365,2.4316,2.4296,2.4282,2.4285,2.4286,2.4278,2.4272,2.428,2.4298,2.4298,2.4298,2.4298,2.4298,2.4298,2.4884,2.4848,2.4821,2.4767,2.4733,2.4691,2.4667,2.4632,2.4597,2.4542,2.4505,2.4472,2.4424,2.4372,2.4329,2.4314,2.4298,2.4305,2.4287,2.4282,2.4279,2.4277,2.4284,2.4302,2.4302,2.4296,2.4296,2.4296]}]]